Time,TemperatureF,DewpointF,PressureIn,WindDirection,WindDirectionDegrees,WindSpeedMPH,WindSpeedGustMPH,Humidity,HourlyPrecipIn,Conditions,Clouds,dailyrainin,SoftwareType,DateUTC
2013-02-04 00:02:00,25.9,8.0,28.64,SE,134,2.2,5.4,46,0.00,,BKN200,0.00,VWS V14.00,2013-02-04 06:02:00,
2013-02-04 00:07:00,26.2,8.3,28.64,SE,136,4.0,5.8,46,0.00,,BKN200,0.00,VWS V14.00,2013-02-04 06:07:00,
2013-02-04 00:12:00,26.8,8.8,28.64,SE,124,2.7,6.3,46,0.00,,BKN200,0.00,VWS V14.00,2013-02-04 06:12:00,
2013-02-04 00:17:00,27.1,8.6,28.64,ESE,120,3.1,6.3,45,0.00,,BKN200,0.00,VWS V14.00,2013-02-04 06:17:00,
2013-02-04 00:22:00,27.7,8.6,28.64,SSE,150,3.6,4.9,44,0.00,,BKN200,0.00,VWS V14.00,2013-02-04 06:22:00,
2013-02-04 00:27:00,28.2,9.1,28.64,SE,139,3.6,6.3,44,0.00,,BKN200,0.00,VWS V14.00,2013-02-04 06:27:00,
2013-02-04 00:32:00,28.2,8.6,28.64,SE,130,3.6,4.0,43,0.00,,BKN200,0.00,VWS V14.00,2013-02-04 06:32:00,
2013-02-04 00:37:00,28.2,8.6,28.64,SE,128,3.6,5.4,43,0.00,,BKN200,0.00,VWS V14.00,2013-02-04 06:37:00,
2013-02-04 00:42:00,28.2,8.6,28.64,SE,128,2.7,4.0,43,0.00,,BKN200,0.00,VWS V14.00,2013-02-04 06:42:00,
2013-02-04 00:47:00,28.4,8.8,28.64,SE,146,3.1,4.9,43,0.00,,BKN200,0.00,VWS V14.00,2013-02-04 06:47:00,
2013-02-04 00:52:00,28.4,9.3,28.64,SE,126,3.1,3.6,44,0.00,,BKN200,0.00,VWS V14.00,2013-02-04 06:52:00,
2013-02-04 00:57:00,28.6,9.4,28.61,SE,128,2.7,4.0,44,0.00,,BKN200,0.00,VWS V14.00,2013-02-04 06:57:00,
2013-02-04 01:02:00,28.8,9.6,28.61,SSE,148,0.0,0.0,44,0.00,,SCT250,0.00,VWS V14.00,2013-02-04 07:02:00,
2013-02-04 01:07:00,29.1,9.9,28.61,SSE,149,0.0,0.0,44,0.00,,SCT250,0.00,VWS V14.00,2013-02-04 07:07:00,
2013-02-04 01:12:00,29.3,10.1,28.61,ESE,121,0.0,3.1,44,0.00,,SCT250,0.00,VWS V14.00,2013-02-04 07:12:00,
2013-02-04 01:17:00,29.7,10.4,28.61,SSE,149,0.0,4.0,44,0.00,,SCT250,0.00,VWS V14.00,2013-02-04 07:17:00,
2013-02-04 01:22:00,29.8,10.6,28.61,SSE,149,0.0,0.0,44,0.00,,SCT250,0.00,VWS V14.00,2013-02-04 07:22:00,
2013-02-04 01:27:00,29.7,9.9,28.61,SSE,149,0.0,0.0,43,0.00,,SCT250,0.00,VWS V14.00,2013-02-04 07:27:00,
2013-02-04 01:32:00,29.8,10.6,28.61,SSE,149,0.0,0.0,44,0.00,,SCT250,0.00,VWS V14.00,2013-02-04 07:32:00,
2013-02-04 01:37:00,30.4,11.1,28.61,SE,136,2.7,4.0,44,0.00,,SCT250,0.00,VWS V14.00,2013-02-04 07:37:00,
2013-02-04 01:42:00,31.1,11.8,28.61,SSE,151,3.1,3.6,44,0.00,,SCT250,0.00,VWS V14.00,2013-02-04 07:42:00,
2013-02-04 01:47:00,32.0,13.1,28.61,SSE,148,5.4,6.3,45,0.00,,SCT250,0.00,VWS V14.00,2013-02-04 07:47:00,
2013-02-04 01:52:00,32.5,12.5,28.61,SSE,147,3.6,4.0,43,0.00,,SCT250,0.00,VWS V14.00,2013-02-04 07:52:00,
2013-02-04 01:57:00,32.7,12.7,28.61,SE,146,3.1,5.4,43,0.00,,SCT250,0.00,VWS V14.00,2013-02-04 07:57:00,
2013-02-04 02:02:00,32.7,12.7,28.61,SSE,147,2.7,3.1,43,0.00,,OVC200,0.00,VWS V14.00,2013-02-04 08:02:00,
2013-02-04 02:07:00,33.1,13.0,28.61,SSE,148,0.0,3.1,43,0.00,,OVC200,0.00,VWS V14.00,2013-02-04 08:07:00,
2013-02-04 02:12:00,33.3,12.7,28.61,SSE,147,0.0,0.0,42,0.00,,OVC200,0.00,VWS V14.00,2013-02-04 08:12:00,
2013-02-04 02:17:00,33.4,12.8,28.61,SSE,147,0.0,4.0,42,0.00,,OVC200,0.00,VWS V14.00,2013-02-04 08:17:00,
2013-02-04 02:22:00,33.6,13.0,28.61,SSE,147,0.0,0.0,42,0.00,,OVC200,0.00,VWS V14.00,2013-02-04 08:22:00,
2013-02-04 02:27:00,33.6,13.0,28.61,SSE,147,0.0,4.0,42,0.00,,OVC200,0.00,VWS V14.00,2013-02-04 08:27:00,
2013-02-04 02:32:00,34.0,13.3,28.61,SSE,159,0.0,4.9,42,0.00,,OVC200,0.00,VWS V14.00,2013-02-04 08:32:00,
2013-02-04 02:37:00,35.4,14.1,28.61,WSW,245,5.8,5.8,41,0.00,,OVC200,0.00,VWS V14.00,2013-02-04 08:37:00,
2013-02-04 02:42:00,34.9,13.6,28.64,SSW,192,0.0,3.6,41,0.00,,OVC200,0.00,VWS V14.00,2013-02-04 08:42:00,
2013-02-04 02:47:00,35.2,13.9,28.64,SW,234,0.0,4.5,41,0.00,,OVC200,0.00,VWS V14.00,2013-02-04 08:47:00,
2013-02-04 02:52:00,35.1,13.8,28.64,SSW,203,0.0,3.6,41,0.00,,OVC200,0.00,VWS V14.00,2013-02-04 08:52:00,
2013-02-04 02:57:00,34.9,13.6,28.61,SSW,213,0.0,3.6,41,0.00,,OVC200,0.00,VWS V14.00,2013-02-04 08:57:00,
2013-02-04 03:02:00,34.5,13.3,28.61,South,189,2.2,4.0,41,0.00,,OVC140,0.00,VWS V14.00,2013-02-04 09:02:00,
2013-02-04 03:07:00,34.5,13.3,28.61,SSW,205,0.0,4.0,41,0.00,,OVC140,0.00,VWS V14.00,2013-02-04 09:07:00,
2013-02-04 03:12:00,34.3,13.1,28.61,SSW,205,0.0,0.0,41,0.00,,OVC140,0.00,VWS V14.00,2013-02-04 09:12:00,
2013-02-04 03:17:00,34.5,13.8,28.61,SSW,205,2.2,6.3,42,0.00,,OVC140,0.00,VWS V14.00,2013-02-04 09:17:00,
2013-02-04 03:22:00,34.3,13.6,28.61,SSW,197,3.6,4.5,42,0.00,,OVC140,0.00,VWS V14.00,2013-02-04 09:22:00,
2013-02-04 03:27:00,34.3,13.6,28.61,SSW,213,0.0,4.5,42,0.00,,OVC140,0.00,VWS V14.00,2013-02-04 09:27:00,
2013-02-04 03:32:00,34.2,13.5,28.61,SSW,203,0.0,3.1,42,0.00,,OVC140,0.00,VWS V14.00,2013-02-04 09:32:00,
2013-02-04 03:37:00,34.0,13.9,28.61,SSW,203,0.0,3.1,43,0.00,,OVC140,0.00,VWS V14.00,2013-02-04 09:37:00,
2013-02-04 03:42:00,33.8,13.7,28.61,SSW,203,0.0,0.0,43,0.00,,OVC140,0.00,VWS V14.00,2013-02-04 09:42:00,
2013-02-04 03:47:00,34.0,13.9,28.61,SSW,202,0.0,4.0,43,0.00,,OVC140,0.00,VWS V14.00,2013-02-04 09:47:00,
2013-02-04 03:52:00,33.8,13.7,28.61,West,259,2.2,4.0,43,0.00,,OVC140,0.00,VWS V14.00,2013-02-04 09:52:00,
2013-02-04 03:57:00,33.3,13.7,28.64,SW,228,0.0,4.0,44,0.00,,OVC140,0.00,VWS V14.00,2013-02-04 09:57:00,
2013-02-04 04:02:00,32.9,13.9,28.64,SW,230,0.0,2.7,45,0.00,,OVC140,0.00,VWS V14.00,2013-02-04 10:02:00,
2013-02-04 04:07:00,32.5,14.6,28.64,West,263,2.2,4.0,47,0.00,,OVC110,0.00,VWS V14.00,2013-02-04 10:07:00,
2013-02-04 04:12:00,32.4,14.9,28.64,West,272,2.7,5.8,48,0.00,,OVC110,0.00,VWS V14.00,2013-02-04 10:12:00,
2013-02-04 04:17:00,32.4,15.4,28.64,WSW,255,3.1,5.8,49,0.00,,OVC110,0.00,VWS V14.00,2013-02-04 10:17:00,
2013-02-04 04:22:00,32.0,15.0,28.64,West,270,3.1,4.9,49,0.00,,OVC110,0.00,VWS V14.00,2013-02-04 10:22:00,
2013-02-04 04:27:00,31.6,15.1,28.64,SW,227,3.1,4.9,50,0.00,,OVC110,0.00,VWS V14.00,2013-02-04 10:27:00,
2013-02-04 04:32:00,31.5,15.4,28.64,SW,225,3.1,4.0,51,0.00,,OVC110,0.00,VWS V14.00,2013-02-04 10:32:00,
2013-02-04 04:37:00,31.6,15.6,28.64,SSW,209,5.4,6.3,51,0.00,,OVC110,0.00,VWS V14.00,2013-02-04 10:37:00,
2013-02-04 04:42:00,32.0,15.5,28.64,SW,219,8.3,8.3,50,0.00,,OVC110,0.00,VWS V14.00,2013-02-04 10:42:00,
2013-02-04 04:47:00,31.5,15.0,28.64,West,265,2.7,8.7,50,0.00,,OVC110,0.00,VWS V14.00,2013-02-04 10:47:00,
2013-02-04 04:52:00,31.3,15.3,28.64,SW,232,3.6,6.3,51,0.00,,OVC110,0.00,VWS V14.00,2013-02-04 10:52:00,
2013-02-04 04:57:00,30.9,14.9,28.64,WSW,257,4.0,8.3,51,0.00,,OVC110,0.00,VWS V14.00,2013-02-04 10:57:00,
2013-02-04 05:02:00,30.2,14.7,28.64,WSW,255,5.4,6.3,52,0.00,,FEW140,0.00,VWS V14.00,2013-02-04 11:02:00,
2013-02-04 05:07:00,29.8,14.8,28.64,WNW,283,6.3,8.7,53,0.00,,FEW140,0.00,VWS V14.00,2013-02-04 11:07:00,
2013-02-04 05:12:00,29.1,13.7,28.64,SW,234,2.2,6.3,52,0.00,,FEW140,0.00,VWS V14.00,2013-02-04 11:12:00,
2013-02-04 05:17:00,28.6,14.1,28.64,West,273,5.4,8.1,54,0.00,,FEW140,0.00,VWS V14.00,2013-02-04 11:17:00,
2013-02-04 05:22:00,28.2,14.1,28.64,SSW,201,4.0,6.7,55,0.00,,FEW140,0.00,VWS V14.00,2013-02-04 11:22:00,
2013-02-04 05:27:00,27.9,14.2,28.67,WSW,242,4.9,10.1,56,0.00,,FEW140,0.00,VWS V14.00,2013-02-04 11:27:00,
2013-02-04 05:32:00,27.3,13.7,28.67,West,277,3.1,7.6,56,0.00,,FEW140,0.00,VWS V14.00,2013-02-04 11:32:00,
2013-02-04 05:37:00,27.0,12.1,28.67,SW,236,3.1,7.6,53,0.00,,FEW140,0.00,VWS V14.00,2013-02-04 11:37:00,
2013-02-04 05:42:00,26.1,10.9,28.67,WSW,249,3.1,5.4,52,0.00,,FEW140,0.00,VWS V14.00,2013-02-04 11:42:00,
2013-02-04 05:47:00,25.7,10.1,28.67,WNW,299,3.6,8.7,51,0.00,,FEW140,0.00,VWS V14.00,2013-02-04 11:47:00,
2013-02-04 05:52:00,25.2,9.6,28.67,West,279,3.6,8.1,51,0.00,,FEW140,0.00,VWS V14.00,2013-02-04 11:52:00,
2013-02-04 05:57:00,24.4,9.4,28.67,NW,314,2.2,8.3,52,0.00,,FEW140,0.00,VWS V14.00,2013-02-04 11:57:00,
2013-02-04 06:02:00,24.1,9.4,28.67,WNW,298,5.4,7.2,53,0.00,,CLR,0.00,VWS V14.00,2013-02-04 12:02:00,
2013-02-04 06:07:00,23.7,9.1,28.67,WNW,287,8.7,8.7,53,0.00,,CLR,0.00,VWS V14.00,2013-02-04 12:07:00,
2013-02-04 06:12:00,23.5,8.5,28.70,West,275,4.0,4.0,52,0.00,,CLR,0.00,VWS V14.00,2013-02-04 12:12:00,
2013-02-04 06:17:00,23.7,9.1,28.70,WNW,300,4.0,5.8,53,0.00,,CLR,0.00,VWS V14.00,2013-02-04 12:17:00,
2013-02-04 06:22:00,23.7,8.7,28.70,NW,312,5.8,10.5,52,0.00,,CLR,0.00,VWS V14.00,2013-02-04 12:22:00,
2013-02-04 06:27:00,23.7,8.2,28.70,SW,235,3.6,10.5,51,0.00,,CLR,0.00,VWS V14.00,2013-02-04 12:27:00,
2013-02-04 06:32:00,23.5,7.7,28.70,West,267,4.9,10.5,50,0.00,,CLR,0.00,VWS V14.00,2013-02-04 12:32:00,
2013-02-04 06:37:00,23.5,7.7,28.70,NW,304,3.6,10.5,50,0.00,,OVC016,0.00,VWS V14.00,2013-02-04 12:37:00,
2013-02-04 06:42:00,23.5,7.7,28.70,SSW,192,7.6,8.1,50,0.00,,OVC016,0.00,VWS V14.00,2013-02-04 12:42:00,
2013-02-04 06:47:00,23.5,7.7,28.70,West,273,7.6,10.5,50,0.00,,OVC016,0.00,VWS V14.00,2013-02-04 12:47:00,
2013-02-04 06:52:00,23.5,8.1,28.70,West,280,5.4,8.7,51,0.00,,OVC016,0.00,VWS V14.00,2013-02-04 12:52:00,
2013-02-04 06:57:00,23.4,8.4,28.73,WSW,258,6.3,8.7,52,0.00,,OVC016,0.00,VWS V14.00,2013-02-04 12:57:00,
2013-02-04 07:02:00,23.2,8.6,28.73,WNW,295,8.7,8.7,53,0.00,,OVC017,0.00,VWS V14.00,2013-02-04 13:02:00,
2013-02-04 07:07:00,23.2,8.6,28.73,West,268,5.8,11.4,53,0.00,,OVC017,0.00,VWS V14.00,2013-02-04 13:07:00,
2013-02-04 07:12:00,23.0,8.9,28.73,WNW,283,8.3,8.3,54,0.00,,OVC017,0.00,VWS V14.00,2013-02-04 13:12:00,
2013-02-04 07:17:00,23.0,8.9,28.73,WNW,285,5.8,10.5,54,0.00,,OVC017,0.00,VWS V14.00,2013-02-04 13:17:00,
2013-02-04 07:22:00,23.0,8.9,28.73,WNW,303,6.3,11.0,54,0.00,,OVC017,0.00,VWS V14.00,2013-02-04 13:22:00,
2013-02-04 07:27:00,23.0,8.9,28.73,WSW,254,6.3,11.0,54,0.00,,OVC017,0.00,VWS V14.00,2013-02-04 13:27:00,
2013-02-04 07:32:00,23.0,8.9,28.73,WNW,294,6.3,6.3,54,0.00,,OVC017,0.00,VWS V14.00,2013-02-04 13:32:00,
2013-02-04 07:37:00,23.0,8.9,28.73,West,273,0.0,6.3,54,0.00,,OVC017,0.00,VWS V14.00,2013-02-04 13:37:00,
2013-02-04 07:42:00,23.2,9.0,28.76,West,261,3.1,8.1,54,0.00,,OVC017,0.00,VWS V14.00,2013-02-04 13:42:00,
2013-02-04 07:47:00,23.0,8.9,28.76,WSW,253,7.2,8.1,54,0.00,,OVC017,0.00,VWS V14.00,2013-02-04 13:47:00,
2013-02-04 07:52:00,23.0,8.9,28.76,WSW,250,5.4,8.1,54,0.00,,OVC017,0.00,VWS V14.00,2013-02-04 13:52:00,
2013-02-04 07:57:00,22.8,8.7,28.76,West,271,2.7,11.9,54,0.00,,OVC017,0.00,VWS V14.00,2013-02-04 13:57:00,
2013-02-04 08:02:00,22.8,8.7,28.76,West,267,5.4,9.6,54,0.00,,OVC017,0.00,VWS V14.00,2013-02-04 14:02:00,
2013-02-04 08:07:00,22.6,8.5,28.76,WSW,250,3.6,11.0,54,0.00,,OVC017,0.00,VWS V14.00,2013-02-04 14:07:00,
2013-02-04 08:12:00,22.6,8.5,28.76,West,265,3.1,8.3,54,0.00,,OVC017,0.00,VWS V14.00,2013-02-04 14:12:00,
2013-02-04 08:17:00,22.5,8.3,28.76,WSW,246,5.8,8.7,54,0.00,,OVC017,0.00,VWS V14.00,2013-02-04 14:17:00,
2013-02-04 08:22:00,22.1,8.0,28.76,West,265,5.8,12.8,54,0.00,,OVC017,0.00,VWS V14.00,2013-02-04 14:22:00,
2013-02-04 08:26:00,21.7,7.7,28.79,WNW,289,8.7,12.8,54,0.00,,OVC017,0.00,VWS V14.00,2013-02-04 14:26:00,
2013-02-04 08:31:00,21.7,7.7,28.79,NW,305,5.4,8.7,54,0.00,,OVC017,0.00,VWS V14.00,2013-02-04 14:31:00,
2013-02-04 08:36:00,21.6,7.5,28.79,WNW,295,6.3,11.0,54,0.00,,OVC017,0.00,VWS V14.00,2013-02-04 14:36:00,
2013-02-04 08:41:00,21.4,7.3,28.79,WSW,249,4.0,8.7,54,0.00,,OVC017,0.00,VWS V14.00,2013-02-04 14:41:00,
2013-02-04 08:46:00,21.4,7.3,28.79,West,281,8.3,11.0,54,0.00,,OVC017,0.00,VWS V14.00,2013-02-04 14:46:00,
2013-02-04 08:51:00,21.6,7.5,28.79,NW,306,3.1,6.3,54,0.00,,OVC017,0.00,VWS V14.00,2013-02-04 14:51:00,
2013-02-04 08:56:00,21.6,7.1,28.79,West,280,4.0,10.1,53,0.00,,OVC017,0.00,VWS V14.00,2013-02-04 14:56:00,
2013-02-04 09:01:00,21.2,6.8,28.79,WSW,243,6.3,8.3,53,0.00,,OVC011,0.00,VWS V14.00,2013-02-04 15:01:00,
2013-02-04 09:06:00,21.6,7.1,28.79,WNW,293,3.6,8.3,53,0.00,,OVC011,0.00,VWS V14.00,2013-02-04 15:06:00,
2013-02-04 09:11:00,21.6,7.1,28.79,West,267,4.9,6.3,53,0.00,,OVC011,0.00,VWS V14.00,2013-02-04 15:11:00,
2013-02-04 09:16:00,21.7,6.4,28.79,NW,317,6.3,6.3,51,0.00,,OVC011,0.00,VWS V14.00,2013-02-04 15:16:00,
2013-02-04 09:21:00,21.4,5.6,28.79,South,190,5.8,7.6,50,0.00,,OVC011,0.00,VWS V14.00,2013-02-04 15:21:00,
2013-02-04 09:26:00,21.6,5.4,28.79,WNW,295,6.3,9.6,49,0.00,,OVC011,0.00,VWS V14.00,2013-02-04 15:26:00,
2013-02-04 09:31:00,21.7,5.1,28.79,WSW,240,3.1,7.6,48,0.00,,OVC011,0.00,VWS V14.00,2013-02-04 15:31:00,
2013-02-04 09:36:00,21.2,4.6,28.79,West,273,4.0,10.5,48,0.00,,OVC011,0.00,VWS V14.00,2013-02-04 15:36:00,
2013-02-04 09:41:00,21.0,4.4,28.82,WNW,303,5.8,7.6,48,0.00,,OVC011,0.00,VWS V14.00,2013-02-04 15:41:00,
2013-02-04 09:46:00,20.5,4.4,28.82,West,273,4.0,11.0,49,0.00,,OVC011,0.00,VWS V14.00,2013-02-04 15:46:00,
2013-02-04 09:51:00,21.0,4.4,28.82,West,280,5.8,8.1,48,0.00,,OVC011,0.00,VWS V14.00,2013-02-04 15:51:00,
2013-02-04 09:56:00,21.6,4.5,28.82,WNW,301,3.1,9.2,47,0.00,,OVC011,0.00,VWS V14.00,2013-02-04 15:56:00,
2013-02-04 10:01:00,21.4,4.3,28.82,WSW,244,4.0,10.5,47,0.00,,OVC010,0.00,VWS V14.00,2013-02-04 16:01:00,
2013-02-04 10:06:00,21.4,4.3,28.82,WNW,302,5.8,10.5,47,0.00,,OVC010,0.00,VWS V14.00,2013-02-04 16:06:00,
2013-02-04 10:11:00,21.2,4.1,28.82,West,271,4.0,6.3,47,0.00,,OVC010,0.00,VWS V14.00,2013-02-04 16:11:00,
2013-02-04 10:16:00,21.6,4.0,28.82,West,270,5.8,8.1,46,0.00,,OVC010,0.00,VWS V14.00,2013-02-04 16:16:00,
2013-02-04 10:21:00,21.6,3.0,28.82,NW,312,5.4,8.1,44,0.00,,OVC010,0.00,VWS V14.00,2013-02-04 16:21:00,
2013-02-04 10:26:00,21.4,2.9,28.85,WNW,303,10.1,10.1,44,0.00,,OVC010,0.00,VWS V14.00,2013-02-04 16:26:00,
2013-02-04 10:31:00,21.9,3.4,28.85,West,262,4.9,8.1,44,0.00,,OVC010,0.00,VWS V14.00,2013-02-04 16:31:00,
2013-02-04 10:36:00,21.7,2.7,28.85,NW,312,6.3,10.1,43,0.00,,OVC010,0.00,VWS V14.00,2013-02-04 16:36:00,
2013-02-04 10:41:00,21.9,3.4,28.85,WNW,293,8.1,8.1,44,0.00,,OVC010,0.00,VWS V14.00,2013-02-04 16:41:00,
2013-02-04 10:46:00,21.6,3.0,28.85,West,260,3.6,8.3,44,0.00,,OVC010,0.00,VWS V14.00,2013-02-04 16:46:00,
2013-02-04 10:51:00,22.5,3.9,28.85,WNW,302,2.7,9.6,44,0.00,,OVC010,0.00,VWS V14.00,2013-02-04 16:51:00,
2013-02-04 10:56:00,23.2,4.0,28.88,West,264,15.0,15.0,43,0.00,,OVC010,0.00,VWS V14.00,2013-02-04 16:56:00,
2013-02-04 11:01:00,22.6,3.5,28.88,NW,305,7.6,7.6,43,0.00,,,0.00,VWS V14.00,2013-02-04 17:01:00,
2013-02-04 11:06:00,23.4,3.7,28.88,NW,313,4.0,11.9,42,0.00,,,0.00,VWS V14.00,2013-02-04 17:06:00,
2013-02-04 11:11:00,23.4,3.7,28.88,West,279,8.1,10.5,42,0.00,,,0.00,VWS V14.00,2013-02-04 17:11:00,
2013-02-04 11:16:00,23.5,3.8,28.88,West,276,6.3,10.5,42,0.00,,,0.00,VWS V14.00,2013-02-04 17:16:00,
2013-02-04 11:21:00,23.4,3.7,28.88,West,263,8.3,10.1,42,0.00,,,0.00,VWS V14.00,2013-02-04 17:21:00,
2013-02-04 11:26:00,23.9,4.2,28.88,West,273,5.4,10.1,42,0.00,,,0.00,VWS V14.00,2013-02-04 17:26:00,
2013-02-04 11:31:00,24.6,4.8,28.88,West,271,5.8,8.1,42,0.00,,,0.00,VWS V14.00,2013-02-04 17:31:00,
2013-02-04 11:36:00,25.5,5.1,28.88,NNW,339,3.6,9.2,41,0.00,,,0.00,VWS V14.00,2013-02-04 17:36:00,
2013-02-04 11:41:00,25.7,4.7,28.88,WNW,297,3.6,6.3,40,0.00,,,0.00,VWS V14.00,2013-02-04 17:41:00,
2013-02-04 11:46:00,25.5,4.0,28.88,West,261,8.1,8.7,39,0.00,,,0.00,VWS V14.00,2013-02-04 17:46:00,
2013-02-04 11:51:00,24.1,4.3,28.88,WNW,286,3.1,10.5,42,0.00,,,0.00,VWS V14.00,2013-02-04 17:51:00,
2013-02-04 11:56:00,24.3,4.5,28.85,SW,235,8.7,10.5,42,0.00,,,0.00,VWS V14.00,2013-02-04 17:56:00,
2013-02-04 12:01:00,25.0,5.1,28.85,West,271,3.6,6.3,42,0.00,,OVC013,0.00,VWS V14.00,2013-02-04 18:01:00,
2013-02-04 12:06:00,25.9,5.4,28.85,WNW,289,5.8,8.1,41,0.00,,OVC013,0.00,VWS V14.00,2013-02-04 18:06:00,
2013-02-04 12:11:00,26.1,5.6,28.85,NW,314,5.4,5.8,41,0.00,,OVC013,0.00,VWS V14.00,2013-02-04 18:11:00,
2013-02-04 12:16:00,27.5,4.7,28.85,NW,314,5.8,7.2,37,0.00,,OVC013,0.00,VWS V14.00,2013-02-04 18:16:00,
2013-02-04 12:21:00,27.1,4.3,28.85,West,273,3.1,3.6,37,0.00,,OVC013,0.00,VWS V14.00,2013-02-04 18:21:00,
2013-02-04 12:26:00,26.1,3.9,28.85,West,275,8.1,8.3,38,0.00,,OVC013,0.00,VWS V14.00,2013-02-04 18:26:00,
2013-02-04 12:31:00,25.3,4.4,28.85,WSW,255,7.6,8.7,40,0.00,,OVC013,0.00,VWS V14.00,2013-02-04 18:31:00,
2013-02-04 12:36:00,27.1,3.7,28.85,NNW,328,5.4,8.7,36,0.00,,SCT014,0.00,VWS V14.00,2013-02-04 18:36:00,
2013-02-04 12:41:00,27.7,3.0,28.82,West,262,4.0,6.3,34,0.00,,SCT014,0.00,VWS V14.00,2013-02-04 18:41:00,
2013-02-04 12:46:00,27.9,4.4,28.82,NNW,336,3.1,9.6,36,0.00,,SCT014,0.00,VWS V14.00,2013-02-04 18:46:00,
2013-02-04 12:51:00,26.8,3.4,28.82,NW,313,3.1,8.7,36,0.00,,SCT014,0.00,VWS V14.00,2013-02-04 18:51:00,
2013-02-04 12:56:00,27.5,3.5,28.82,NW,309,3.1,8.7,35,0.00,,SCT014,0.00,VWS V14.00,2013-02-04 18:56:00,
2013-02-04 13:01:00,26.4,3.1,28.82,NW,321,8.1,8.1,36,0.00,,BKN016,0.00,VWS V14.00,2013-02-04 19:01:00,
2013-02-04 13:06:00,25.5,3.5,28.82,NNW,337,7.2,10.5,38,0.00,,BKN016,0.00,VWS V14.00,2013-02-04 19:06:00,
2013-02-04 13:11:00,27.9,3.8,28.82,NNE,12,3.1,10.5,35,0.00,,BKN016,0.00,VWS V14.00,2013-02-04 19:11:00,
2013-02-04 13:16:00,30.7,4.4,28.82,North,353,3.6,10.5,32,0.00,,BKN016,0.00,VWS V14.00,2013-02-04 19:16:00,
2013-02-04 13:21:00,29.1,3.0,28.82,NNW,342,6.3,6.3,32,0.00,,BKN016,0.00,VWS V14.00,2013-02-04 19:21:00,
2013-02-04 13:26:00,29.5,3.9,28.82,NW,308,4.0,8.3,33,0.00,,BKN016,0.00,VWS V14.00,2013-02-04 19:26:00,
2013-02-04 13:31:00,27.9,2.5,28.82,NW,311,5.8,5.8,33,0.00,,BKN016,0.00,VWS V14.00,2013-02-04 19:31:00,
2013-02-04 13:36:00,27.0,2.3,28.82,SW,229,5.8,7.6,34,0.00,,BKN016,0.00,VWS V14.00,2013-02-04 19:36:00,
2013-02-04 13:41:00,27.3,3.3,28.82,WNW,291,2.7,6.3,35,0.00,,BKN016,0.00,VWS V14.00,2013-02-04 19:41:00,
2013-02-04 13:46:00,28.6,4.4,28.82,NNW,348,2.2,6.3,35,0.00,,BKN016,0.00,VWS V14.00,2013-02-04 19:46:00,
2013-02-04 13:51:00,27.7,3.6,28.82,WSW,245,4.0,5.8,35,0.00,,BKN016,0.00,VWS V14.00,2013-02-04 19:51:00,
2013-02-04 13:56:00,27.9,3.2,28.82,West,262,2.7,5.8,34,0.00,,BKN016,0.00,VWS V14.00,2013-02-04 19:56:00,
2013-02-04 14:01:00,25.0,1.2,28.82,SSW,205,5.8,8.3,35,0.00,,BKN017,0.00,VWS V14.00,2013-02-04 20:01:00,
2013-02-04 14:06:00,26.6,3.3,28.82,West,259,2.7,8.3,36,0.00,,BKN017,0.00,VWS V14.00,2013-02-04 20:06:00,
2013-02-04 14:11:00,25.7,3.0,28.85,WNW,289,2.7,6.3,37,0.00,,BKN017,0.00,VWS V14.00,2013-02-04 20:11:00,
2013-02-04 14:16:00,27.0,4.2,28.85,WNW,286,4.9,6.3,37,0.00,,BKN017,0.00,VWS V14.00,2013-02-04 20:16:00,
2013-02-04 14:21:00,26.6,3.3,28.85,SSW,210,4.0,4.0,36,0.00,,BKN017,0.00,VWS V14.00,2013-02-04 20:21:00,
2013-02-04 14:26:00,27.9,3.8,28.85,West,266,3.1,4.0,35,0.00,,BKN017,0.00,VWS V14.00,2013-02-04 20:26:00,
2013-02-04 14:31:00,25.7,3.6,28.85,West,280,2.7,8.1,38,0.00,,BKN017,0.00,VWS V14.00,2013-02-04 20:31:00,
2013-02-04 14:36:00,26.1,3.9,28.85,WSW,253,0.0,8.1,38,0.00,,BKN017,0.00,VWS V14.00,2013-02-04 20:36:00,
2013-02-04 14:41:00,26.4,3.7,28.85,NW,311,5.4,5.4,37,0.00,,BKN017,0.00,VWS V14.00,2013-02-04 20:41:00,
2013-02-04 14:46:00,26.6,4.4,28.85,West,268,3.6,5.4,38,0.00,,BKN017,0.00,VWS V14.00,2013-02-04 20:46:00,
2013-02-04 14:51:00,25.7,3.6,28.85,WNW,303,5.4,6.3,38,0.00,,BKN017,0.00,VWS V14.00,2013-02-04 20:51:00,
2013-02-04 14:56:00,25.7,5.3,28.85,WNW,288,3.6,6.3,41,0.00,,BKN017,0.00,VWS V14.00,2013-02-04 20:56:00,
2013-02-04 15:01:00,25.5,4.0,28.85,West,263,5.4,5.4,39,0.00,,OVC018,0.00,VWS V14.00,2013-02-04 21:01:00,
2013-02-04 15:06:00,25.2,4.8,28.85,South,178,2.7,6.3,41,0.00,,OVC018,0.00,VWS V14.00,2013-02-04 21:06:00,
2013-02-04 15:11:00,25.9,5.4,28.85,West,276,3.1,4.9,41,0.00,,OVC018,0.00,VWS V14.00,2013-02-04 21:11:00,
2013-02-04 15:16:00,25.5,3.5,28.85,West,262,6.3,6.3,38,0.00,,OVC018,0.00,VWS V14.00,2013-02-04 21:16:00,
2013-02-04 15:21:00,26.4,4.3,28.85,WNW,291,3.6,3.6,38,0.00,,OVC018,0.00,VWS V14.00,2013-02-04 21:21:00,
2013-02-04 15:26:00,26.1,4.5,28.85,NW,306,3.6,8.1,39,0.00,,OVC018,0.00,VWS V14.00,2013-02-04 21:26:00,
2013-02-04 15:31:00,26.8,4.6,28.85,NW,316,0.0,0.0,38,0.00,,OVC018,0.00,VWS V14.00,2013-02-04 21:31:00,
2013-02-04 15:36:00,26.2,2.9,28.85,SW,233,3.1,5.4,36,0.00,,OVC018,0.00,VWS V14.00,2013-02-04 21:36:00,
2013-02-04 15:41:00,25.0,3.0,28.85,SSW,209,6.3,6.3,38,0.00,,OVC018,0.00,VWS V14.00,2013-02-04 21:41:00,
2013-02-04 15:46:00,25.2,4.2,28.85,NNW,329,0.0,6.3,40,0.00,,OVC018,0.00,VWS V14.00,2013-02-04 21:46:00,
2013-02-04 15:51:00,25.3,4.4,28.85,NW,320,4.9,4.9,40,0.00,,OVC018,0.00,VWS V14.00,2013-02-04 21:51:00,
2013-02-04 15:56:00,25.7,5.3,28.85,NW,316,0.0,4.9,41,0.00,,OVC018,0.00,VWS V14.00,2013-02-04 21:56:00,
2013-02-04 16:01:00,25.2,4.2,28.85,WNW,293,3.6,4.9,40,0.00,,OVC018,0.00,VWS V14.00,2013-02-04 22:01:00,
2013-02-04 16:06:00,25.3,4.9,28.85,West,277,0.0,5.4,41,0.00,,OVC018,0.00,VWS V14.00,2013-02-04 22:06:00,
2013-02-04 16:11:00,24.3,4.5,28.85,WSW,243,4.0,4.0,42,0.00,,OVC018,0.00,VWS V14.00,2013-02-04 22:11:00,
2013-02-04 16:16:00,24.1,4.3,28.85,SSW,209,3.6,5.4,42,0.00,,OVC018,0.00,VWS V14.00,2013-02-04 22:16:00,
2013-02-04 16:21:00,23.9,4.2,28.85,SW,219,3.1,3.1,42,0.00,,OVC018,0.00,VWS V14.00,2013-02-04 22:21:00,
2013-02-04 16:26:00,24.4,4.7,28.85,WNW,286,0.0,3.6,42,0.00,,OVC018,0.00,VWS V14.00,2013-02-04 22:26:00,
2013-02-04 16:31:00,24.4,4.7,28.85,WNW,287,0.0,0.0,42,0.00,,OVC018,0.00,VWS V14.00,2013-02-04 22:31:00,
2013-02-04 16:36:00,24.4,4.7,28.85,WNW,286,0.0,2.7,42,0.00,,OVC018,0.00,VWS V14.00,2013-02-04 22:36:00,
2013-02-04 16:41:00,24.6,4.8,28.82,WNW,287,0.0,0.0,42,0.00,,OVC018,0.00,VWS V14.00,2013-02-04 22:41:00,
2013-02-04 16:46:00,24.4,4.7,28.82,WNW,286,0.0,0.0,42,0.00,,OVC018,0.00,VWS V14.00,2013-02-04 22:46:00,
2013-02-04 16:51:00,24.4,4.7,28.82,WNW,286,0.0,0.0,42,0.00,,OVC018,0.00,VWS V14.00,2013-02-04 22:51:00,
2013-02-04 16:56:00,24.4,4.7,28.82,WNW,286,0.0,0.0,42,0.00,,OVC018,0.00,VWS V14.00,2013-02-04 22:56:00,
2013-02-04 17:01:00,24.3,4.5,28.82,WNW,286,0.0,0.0,42,0.00,,OVC018,0.00,VWS V14.00,2013-02-04 23:01:00,
2013-02-04 17:06:00,23.7,4.0,28.82,WNW,286,0.0,0.0,42,0.00,,OVC018,0.00,VWS V14.00,2013-02-04 23:06:00,
2013-02-04 17:11:00,23.4,3.7,28.82,WNW,286,0.0,0.0,42,0.00,,OVC018,0.00,VWS V14.00,2013-02-04 23:11:00,
2013-02-04 17:16:00,23.2,3.5,28.82,WNW,286,0.0,0.0,42,0.00,,OVC018,0.00,VWS V14.00,2013-02-04 23:16:00,
2013-02-04 17:21:00,23.2,3.5,28.82,WNW,287,0.0,0.0,42,0.00,,OVC018,0.00,VWS V14.00,2013-02-04 23:21:00,
2013-02-04 17:26:00,23.2,4.0,28.82,WNW,286,0.0,0.0,43,0.00,,OVC018,0.00,VWS V14.00,2013-02-04 23:26:00,
2013-02-04 17:31:00,22.8,3.7,28.82,WNW,286,0.0,0.0,43,0.00,,OVC018,0.00,VWS V14.00,2013-02-04 23:31:00,
2013-02-04 17:36:00,22.5,3.9,28.82,WNW,286,0.0,0.0,44,0.00,,OVC018,0.00,VWS V14.00,2013-02-04 23:36:00,
2013-02-04 17:41:00,21.7,3.2,28.82,WNW,286,0.0,0.0,44,0.00,,OVC018,0.00,VWS V14.00,2013-02-04 23:41:00,
2013-02-04 17:46:00,21.2,2.7,28.82,WNW,286,0.0,0.0,44,0.00,,OVC018,0.00,VWS V14.00,2013-02-04 23:46:00,
2013-02-04 17:51:00,20.8,3.3,28.82,WNW,287,0.0,0.0,46,0.00,,BKN190,0.00,VWS V14.00,2013-02-04 23:51:00,
2013-02-04 17:56:00,20.5,3.0,28.82,WNW,286,0.0,0.0,46,0.00,,BKN190,0.00,VWS V14.00,2013-02-04 23:56:00,
2013-02-04 18:01:00,20.5,4.4,28.82,WNW,286,0.0,0.0,49,0.00,,BKN190,0.00,VWS V14.00,2013-02-05 00:01:00,
2013-02-04 18:06:00,20.3,4.6,28.82,WNW,286,0.0,0.0,50,0.00,,BKN190,0.00,VWS V14.00,2013-02-05 00:06:00,
2013-02-04 18:11:00,20.3,5.5,28.82,WNW,286,0.0,0.0,52,0.00,,BKN190,0.00,VWS V14.00,2013-02-05 00:11:00,
2013-02-04 18:16:00,19.9,5.2,28.82,WNW,286,0.0,0.0,52,0.00,,BKN190,0.00,VWS V14.00,2013-02-05 00:16:00,
2013-02-04 18:21:00,19.9,5.6,28.82,WNW,286,0.0,0.0,53,0.00,,BKN190,0.00,VWS V14.00,2013-02-05 00:21:00,
2013-02-04 18:26:00,19.9,6.0,28.82,WNW,287,0.0,0.0,54,0.00,,BKN190,0.00,VWS V14.00,2013-02-05 00:26:00,
2013-02-04 18:31:00,20.7,7.1,28.82,WNW,286,0.0,2.7,55,0.00,,BKN190,0.00,VWS V14.00,2013-02-05 00:31:00,
2013-02-04 18:36:00,20.1,6.2,28.82,WNW,287,0.0,2.7,54,0.00,,BKN190,0.00,VWS V14.00,2013-02-05 00:36:00,
2013-02-04 18:41:00,19.4,5.5,28.82,WNW,287,0.0,0.0,54,0.00,,BKN190,0.00,VWS V14.00,2013-02-05 00:41:00,
2013-02-04 18:46:00,19.0,5.5,28.82,WNW,286,0.0,0.0,55,0.00,,BKN190,0.00,VWS V14.00,2013-02-05 00:46:00,
2013-02-04 18:51:00,18.5,5.4,28.82,WNW,286,0.0,0.0,56,0.00,,BKN190,0.00,VWS V14.00,2013-02-05 00:51:00,
2013-02-04 18:56:00,18.1,5.1,28.82,WNW,287,0.0,0.0,56,0.00,,BKN190,0.00,VWS V14.00,2013-02-05 00:56:00,
2013-02-04 19:01:00,17.8,4.8,28.82,WNW,286,0.0,0.0,56,0.00,,SCT190,0.00,VWS V14.00,2013-02-05 01:01:00,
2013-02-04 19:06:00,17.6,5.7,28.82,WNW,286,0.0,0.0,59,0.00,,SCT190,0.00,VWS V14.00,2013-02-05 01:06:00,
2013-02-04 19:11:00,17.1,5.2,28.82,WNW,286,0.0,0.0,59,0.00,,SCT190,0.00,VWS V14.00,2013-02-05 01:11:00,
2013-02-04 19:16:00,17.1,5.2,28.82,WNW,286,0.0,0.0,59,0.00,,SCT190,0.00,VWS V14.00,2013-02-05 01:16:00,
2013-02-04 19:21:00,17.1,5.2,28.82,WNW,286,0.0,0.0,59,0.00,,SCT190,0.00,VWS V14.00,2013-02-05 01:21:00,
2013-02-04 19:26:00,17.1,5.6,28.82,WNW,287,0.0,0.0,60,0.00,,SCT190,0.00,VWS V14.00,2013-02-05 01:26:00,
2013-02-04 19:31:00,17.4,6.3,28.82,WNW,286,0.0,0.0,61,0.00,,SCT190,0.00,VWS V14.00,2013-02-05 01:31:00,
2013-02-04 19:36:00,17.1,5.6,28.82,WNW,286,0.0,0.0,60,0.00,,SCT190,0.00,VWS V14.00,2013-02-05 01:36:00,
2013-02-04 19:41:00,17.1,6.3,28.82,WNW,286,0.0,0.0,62,0.00,,SCT190,0.00,VWS V14.00,2013-02-05 01:41:00,
2013-02-04 19:46:00,17.2,6.8,28.82,WNW,287,0.0,0.0,63,0.00,,SCT190,0.00,VWS V14.00,2013-02-05 01:46:00,
2013-02-04 19:51:00,17.2,7.2,28.82,WNW,286,0.0,0.0,64,0.00,,SCT190,0.00,VWS V14.00,2013-02-05 01:51:00,
2013-02-04 19:56:00,17.1,7.7,28.82,WNW,287,0.0,0.0,66,0.00,,SCT190,0.00,VWS V14.00,2013-02-05 01:56:00,
2013-02-04 20:01:00,16.9,8.2,28.82,WNW,286,0.0,0.0,68,0.00,,FEW200,0.00,VWS V14.00,2013-02-05 02:01:00,
2013-02-04 20:06:00,16.3,7.6,28.82,WNW,287,0.0,0.0,68,0.00,,FEW200,0.00,VWS V14.00,2013-02-05 02:06:00,
2013-02-04 20:11:00,16.5,8.8,28.79,WNW,286,0.0,0.0,71,0.00,,FEW200,0.00,VWS V14.00,2013-02-05 02:11:00,
2013-02-04 20:16:00,16.2,8.4,28.79,WNW,287,0.0,0.0,71,0.00,,FEW200,0.00,VWS V14.00,2013-02-05 02:16:00,
2013-02-04 20:21:00,16.5,9.4,28.79,WNW,286,0.0,0.0,73,0.00,,FEW200,0.00,VWS V14.00,2013-02-05 02:21:00,
2013-02-04 20:26:00,16.0,8.9,28.79,WNW,286,0.0,0.0,73,0.00,,FEW200,0.00,VWS V14.00,2013-02-05 02:26:00,
2013-02-04 20:31:00,15.8,8.4,28.79,WNW,287,0.0,0.0,72,0.00,,FEW200,0.00,VWS V14.00,2013-02-05 02:31:00,
2013-02-04 20:36:00,15.4,7.7,28.79,WNW,286,0.0,0.0,71,0.00,,FEW200,0.00,VWS V14.00,2013-02-05 02:36:00,
2013-02-04 20:41:00,15.4,8.0,28.79,WNW,286,0.0,0.0,72,0.00,,FEW200,0.00,VWS V14.00,2013-02-05 02:41:00,
2013-02-04 20:46:00,15.4,8.4,28.79,WNW,286,0.0,0.0,73,0.00,,FEW200,0.00,VWS V14.00,2013-02-05 02:46:00,
2013-02-04 20:51:00,15.8,9.3,28.79,WNW,286,0.0,0.0,75,0.00,,FEW200,0.00,VWS V14.00,2013-02-05 02:51:00,
2013-02-04 20:56:00,16.3,10.1,28.79,WNW,286,0.0,3.1,76,0.00,,FEW200,0.00,VWS V14.00,2013-02-05 02:56:00,
2013-02-04 21:01:00,16.7,10.8,28.79,WNW,286,0.0,3.1,77,0.00,,FEW200,0.00,VWS V14.00,2013-02-05 03:01:00,
2013-02-04 21:06:00,16.5,10.6,28.79,WNW,287,0.0,3.1,77,0.00,,FEW110,0.00,VWS V14.00,2013-02-05 03:06:00,
2013-02-04 21:11:00,16.3,10.1,28.79,WNW,287,0.0,0.0,76,0.00,,FEW110,0.00,VWS V14.00,2013-02-05 03:11:00,
2013-02-04 21:16:00,16.7,10.5,28.79,WNW,286,0.0,0.0,76,0.00,,FEW110,0.00,VWS V14.00,2013-02-05 03:16:00,
2013-02-04 21:21:00,17.4,11.5,28.79,WNW,287,0.0,0.0,77,0.00,,FEW110,0.00,VWS V14.00,2013-02-05 03:21:00,
2013-02-04 21:26:00,18.1,12.2,28.79,WNW,286,0.0,0.0,77,0.00,,FEW110,0.00,VWS V14.00,2013-02-05 03:26:00,
2013-02-04 21:31:00,18.3,12.6,28.79,SSE,165,0.0,3.6,78,0.00,,FEW110,0.00,VWS V14.00,2013-02-05 03:31:00,
2013-02-04 21:36:00,18.5,12.8,28.79,SE,129,2.2,5.4,78,0.00,,FEW110,0.00,VWS V14.00,2013-02-05 03:36:00,
2013-02-04 21:41:00,18.7,13.0,28.79,SE,129,2.7,3.1,78,0.00,,FEW110,0.00,VWS V14.00,2013-02-05 03:41:00,
2013-02-04 21:46:00,19.0,13.3,28.79,ESE,123,4.0,5.4,78,0.00,,FEW110,0.00,VWS V14.00,2013-02-05 03:46:00,
2013-02-04 21:51:00,19.2,13.5,28.79,ESE,123,2.7,3.1,78,0.00,,FEW110,0.00,VWS V14.00,2013-02-05 03:51:00,
2013-02-04 21:56:00,19.4,13.7,28.82,ESE,123,3.6,5.4,78,0.00,,FEW110,0.00,VWS V14.00,2013-02-05 03:56:00,
2013-02-04 22:01:00,19.4,13.4,28.82,ESE,117,2.7,3.1,77,0.00,,OVC100,0.00,VWS V14.00,2013-02-05 04:01:00,
2013-02-04 22:06:00,19.6,13.6,28.82,SE,127,2.7,6.3,77,0.00,,OVC100,0.00,VWS V14.00,2013-02-05 04:06:00,
2013-02-04 22:11:00,19.8,13.4,28.79,SE,128,3.6,3.6,76,0.00,,OVC100,0.00,VWS V14.00,2013-02-05 04:11:00,
2013-02-04 22:16:00,19.8,13.4,28.79,ESE,120,2.7,5.4,76,0.00,,OVC100,0.00,VWS V14.00,2013-02-05 04:16:00,
2013-02-04 22:21:00,19.9,13.3,28.79,SE,124,4.9,5.4,75,0.00,,OVC100,0.00,VWS V14.00,2013-02-05 04:21:00,
2013-02-04 22:26:00,19.9,13.0,28.79,SE,133,4.9,5.8,74,0.00,,OVC100,0.00,VWS V14.00,2013-02-05 04:26:00,
2013-02-04 22:31:00,20.1,12.6,28.79,SE,131,3.6,6.3,72,0.00,,OVC100,0.00,VWS V14.00,2013-02-05 04:31:00,
2013-02-04 22:36:00,20.1,12.2,28.79,SE,129,4.0,7.6,71,0.00,,OVC100,0.00,VWS V14.00,2013-02-05 04:36:00,
2013-02-04 22:41:00,20.3,12.1,28.79,SE,139,4.0,4.0,70,0.00,,OVC100,0.00,VWS V14.00,2013-02-05 04:41:00,
2013-02-04 22:46:00,20.3,11.4,28.79,SE,135,2.7,7.6,68,0.00,,OVC100,0.00,VWS V14.00,2013-02-05 04:46:00,
2013-02-04 22:51:00,20.5,11.3,28.79,East,98,3.1,4.0,67,0.00,,OVC100,0.00,VWS V14.00,2013-02-05 04:51:00,
2013-02-04 22:56:00,20.5,11.3,28.79,ENE,74,3.1,6.3,67,0.00,,OVC100,0.00,VWS V14.00,2013-02-05 04:56:00,
2013-02-04 23:00:00,20.5,10.9,28.79,East,81,0.0,6.3,66,0.00,,OVC100,0.00,VWS V14.00,2013-02-05 05:00:00,
2013-02-04 23:05:00,20.5,10.6,28.79,ENE,68,2.2,4.0,65,0.00,,OVC100,0.00,VWS V14.00,2013-02-05 05:05:00,
2013-02-04 23:10:00,20.5,10.2,28.79,ENE,76,0.0,0.0,64,0.00,,OVC100,0.00,VWS V14.00,2013-02-05 05:10:00,
2013-02-04 23:15:00,20.5,9.9,28.79,ENE,70,0.0,4.0,63,0.00,,OVC100,0.00,VWS V14.00,2013-02-05 05:15:00,
2013-02-04 23:20:00,20.5,9.9,28.79,East,80,0.0,4.0,63,0.00,,OVC100,0.00,VWS V14.00,2013-02-05 05:20:00,
2013-02-04 23:25:00,20.7,9.7,28.79,NE,51,3.6,3.6,62,0.00,,OVC100,0.00,VWS V14.00,2013-02-05 05:25:00,
2013-02-04 23:30:00,20.7,9.7,28.79,ENE,73,4.9,4.9,62,0.00,,OVC100,0.00,VWS V14.00,2013-02-05 05:30:00,
2013-02-04 23:35:00,20.7,9.4,28.79,ENE,71,4.0,5.4,61,0.00,,OVC100,0.00,VWS V14.00,2013-02-05 05:35:00,
2013-02-04 23:40:00,20.7,9.0,28.79,NE,42,0.0,5.4,60,0.00,,OVC100,0.00,VWS V14.00,2013-02-05 05:40:00,
2013-02-04 23:45:00,20.8,9.2,28.79,ENE,57,0.0,5.8,60,0.00,,OVC100,0.00,VWS V14.00,2013-02-05 05:45:00,
2013-02-04 23:50:00,20.8,8.8,28.79,SE,133,2.7,2.7,59,0.00,,OVC100,0.00,VWS V14.00,2013-02-05 05:50:00,
2013-02-04 23:55:00,20.8,8.8,28.79,ENE,66,2.7,5.4,59,0.00,,OVC100,0.00,VWS V14.00,2013-02-05 05:55:00,